WZZ46LS EPSC-ENGM

Flight info

Callsign WZZ46LS
Flight time 1h 23m
Altitude 36000
Route NEHIM DCT POKEN DCT SABAK DCT LUNIP
Aircraft A21N/M-SDE3FGHIRWY/LB1

Departure

Time 2026-05-07 20:34
Airport Solidarity Szczecin–Goleniów Airport (EPSC)

Arrival

Time 2026-05-07 21:57
Airport Oslo-Gardermoen International Airport (ENGM)
Time Latitude Longitude Altitude Speed Heading
2026-05-07 20:03 53.59282 14.89319 128 ft 0 kts 40°
2026-05-07 20:27 53.59282 14.89318 128 ft 0 kts 40°
2026-05-07 20:27 53.59286 14.89325 128 ft 1 kts 47°
2026-05-07 20:28 53.59286 14.89333 128 ft 0 kts 106°
2026-05-07 20:28 53.59278 14.89337 128 ft 2 kts 178°
2026-05-07 20:28 53.59264 14.89311 127 ft 3 kts 231°
2026-05-07 20:28 53.59230 14.89256 125 ft 7 kts 222°
2026-05-07 20:29 53.59178 14.89271 124 ft 9 kts 139°
2026-05-07 20:29 53.59131 14.89363 124 ft 10 kts 130°
2026-05-07 20:29 53.59087 14.89448 127 ft 8 kts 131°
2026-05-07 20:29 53.59046 14.89528 128 ft 10 kts 131°
2026-05-07 20:30 53.58993 14.89630 129 ft 13 kts 130°
2026-05-07 20:30 53.58927 14.89757 131 ft 15 kts 131°
2026-05-07 20:30 53.58853 14.89903 132 ft 17 kts 130°
2026-05-07 20:30 53.58766 14.90070 134 ft 20 kts 131°
2026-05-07 20:31 53.58667 14.90265 136 ft 23 kts 131°
2026-05-07 20:31 53.58551 14.90487 135 ft 26 kts 131°
2026-05-07 20:31 53.58433 14.90717 138 ft 25 kts 130°
2026-05-07 20:31 53.58322 14.90932 142 ft 24 kts 129°
2026-05-07 20:32 53.58216 14.91138 147 ft 22 kts 131°
2026-05-07 20:32 53.58114 14.91336 149 ft 22 kts 130°
2026-05-07 20:32 53.58012 14.91534 150 ft 22 kts 130°
2026-05-07 20:32 53.57916 14.91722 150 ft 15 kts 130°
2026-05-07 20:33 53.57835 14.91747 150 ft 13 kts 215°
2026-05-07 20:33 53.57787 14.91675 150 ft 4 kts 223°
2026-05-07 20:33 53.57759 14.91629 149 ft 2 kts 237°
2026-05-07 20:33 53.57771 14.91579 149 ft 6 kts 307°
2026-05-07 20:34 53.57949 14.91235 145 ft 79 kts 311°
2026-05-07 20:34 53.58482 14.90201 135 ft 149 kts 312°
2026-05-07 20:34 53.59192 14.88813 676 ft 159 kts 312°
2026-05-07 20:34 53.59881 14.87371 1432 ft 161 kts 312°
2026-05-07 20:35 53.60570 14.85908 2145 ft 161 kts 315°
2026-05-07 20:35 53.61298 14.84423 2544 ft 173 kts 315°
2026-05-07 20:35 53.62118 14.82867 2917 ft 187 kts 319°
2026-05-07 20:35 53.63083 14.81253 3296 ft 202 kts 321°
2026-05-07 20:36 53.64228 14.79723 3625 ft 217 kts 337°
2026-05-07 20:36 53.65715 14.79356 3953 ft 227 kts 17°
2026-05-07 20:36 53.67096 14.80782 4331 ft 243 kts 46°
2026-05-07 20:36 53.68305 14.82868 5053 ft 251 kts 45°
2026-05-07 20:37 53.69547 14.84911 5863 ft 254 kts 43°
2026-05-07 20:37 53.70883 14.86878 6734 ft 256 kts 40°
2026-05-07 20:37 53.72304 14.88660 7567 ft 259 kts 31°
2026-05-07 20:37 53.74039 14.89556 8286 ft 267 kts
2026-05-07 20:38 53.75879 14.89121 8978 ft 275 kts 347°
2026-05-07 20:38 53.77740 14.88220 9748 ft 279 kts 346°
2026-05-07 20:38 53.79595 14.87410 10487 ft 281 kts 348°
2026-05-07 20:38 53.81577 14.86653 10892 ft 298 kts 349°
2026-05-07 20:39 53.83669 14.85944 11238 ft 314 kts 350°
2026-05-07 20:39 53.85832 14.85235 11770 ft 323 kts 350°
2026-05-07 20:39 53.88070 14.84529 12418 ft 328 kts 351°
2026-05-07 20:39 53.90304 14.83846 13086 ft 330 kts 351°
2026-05-07 20:40 53.92599 14.83191 13832 ft 331 kts 352°
2026-05-07 20:40 53.94851 14.82546 14443 ft 335 kts 351°
2026-05-07 20:40 53.97168 14.81865 15049 ft 339 kts 351°
2026-05-07 20:40 53.99495 14.81178 15648 ft 342 kts 351°
2026-05-07 20:41 54.01834 14.80489 16223 ft 346 kts 351°
2026-05-07 20:41 54.04207 14.79789 16786 ft 349 kts 351°
2026-05-07 20:41 54.06609 14.79082 17337 ft 352 kts 351°
2026-05-07 20:41 54.09011 14.78373 17876 ft 355 kts 351°
2026-05-07 20:42 54.11477 14.77644 18405 ft 358 kts 351°
2026-05-07 20:42 54.13940 14.76915 18925 ft 361 kts 351°
2026-05-07 20:42 54.16422 14.76179 19441 ft 364 kts 351°
2026-05-07 20:42 54.18938 14.75432 19952 ft 367 kts 351°
2026-05-07 20:43 54.21445 14.74689 20448 ft 370 kts 351°
2026-05-07 20:43 54.24001 14.73929 20938 ft 372 kts 351°
2026-05-07 20:43 54.26554 14.73171 21411 ft 375 kts 351°
2026-05-07 20:43 54.29131 14.72404 21869 ft 378 kts 351°
2026-05-07 20:44 54.31691 14.71640 22305 ft 380 kts 351°
2026-05-07 20:44 54.34309 14.70858 22720 ft 384 kts 351°
2026-05-07 20:44 54.36940 14.70072 23134 ft 387 kts 351°
2026-05-07 20:44 54.39596 14.69276 23531 ft 390 kts 351°
2026-05-07 20:45 54.42279 14.68472 23933 ft 393 kts 351°
2026-05-07 20:45 54.44947 14.67671 24330 ft 395 kts 351°
2026-05-07 20:45 54.47660 14.66856 24735 ft 398 kts 351°
2026-05-07 20:45 54.50377 14.66039 25156 ft 399 kts 351°
2026-05-07 20:46 54.53119 14.65214 25583 ft 401 kts 351°
2026-05-07 20:46 54.55860 14.64387 25999 ft 402 kts 351°
2026-05-07 20:46 54.58597 14.63559 26398 ft 404 kts 351°
2026-05-07 20:46 54.61360 14.62723 26742 ft 406 kts 351°
2026-05-07 20:47 54.64179 14.61867 27073 ft 409 kts 351°
2026-05-07 20:47 54.66974 14.61018 27388 ft 412 kts 351°
2026-05-07 20:47 54.69808 14.60154 27709 ft 415 kts 351°
2026-05-07 20:47 54.72646 14.59287 28041 ft 417 kts 351°
2026-05-07 20:48 54.75529 14.58407 28382 ft 419 kts 351°
2026-05-07 20:48 54.78398 14.57486 28718 ft 421 kts 349°
2026-05-07 20:48 54.81213 14.56269 29042 ft 423 kts 345°
2026-05-07 20:48 54.84040 14.54655 29375 ft 425 kts 341°
2026-05-07 20:49 54.86744 14.52725 29674 ft 427 kts 337°
2026-05-07 20:49 54.89475 14.50590 29979 ft 429 kts 337°
2026-05-07 20:49 54.92182 14.48431 30293 ft 431 kts 336°
2026-05-07 20:49 54.94920 14.46243 30590 ft 432 kts 336°
2026-05-07 20:50 54.97630 14.44074 30882 ft 434 kts 337°
2026-05-07 20:50 55.00378 14.41876 31146 ft 435 kts 337°
2026-05-07 20:50 55.03143 14.39668 31376 ft 437 kts 337°
2026-05-07 20:50 55.05904 14.37460 31601 ft 439 kts 337°
2026-05-07 20:51 55.08684 14.35234 31877 ft 440 kts 337°
2026-05-07 20:51 55.11474 14.32999 32207 ft 439 kts 336°
2026-05-07 20:51 55.14241 14.30777 32507 ft 439 kts 336°
2026-05-07 20:51 55.16860 14.28671 32755 ft 439 kts 336°
2026-05-07 20:52 55.19659 14.26418 33000 ft 441 kts 336°
2026-05-07 20:52 55.22418 14.24192 33238 ft 442 kts 336°
2026-05-07 20:52 55.25240 14.21912 33492 ft 442 kts 336°
2026-05-07 20:52 55.28029 14.19657 33734 ft 443 kts 336°
2026-05-07 20:53 55.30846 14.17376 33974 ft 444 kts 336°
2026-05-07 20:53 55.33668 14.15087 34132 ft 446 kts 337°
2026-05-07 20:53 55.36460 14.12819 34144 ft 446 kts 336°
2026-05-07 20:54 55.42104 14.08224 34146 ft 446 kts 336°
2026-05-07 20:54 55.47713 14.03644 34142 ft 445 kts 336°
2026-05-07 20:55 55.53354 13.99019 34150 ft 445 kts 337°
2026-05-07 20:55 55.58960 13.94409 34145 ft 445 kts 337°
2026-05-07 20:56 55.64562 13.89788 34138 ft 445 kts 337°
2026-05-07 20:56 55.70169 13.85147 34141 ft 444 kts 337°
2026-05-07 20:57 55.75770 13.80499 34138 ft 444 kts 337°
2026-05-07 20:57 55.81348 13.75855 34140 ft 443 kts 337°
2026-05-07 20:58 55.86914 13.71209 34137 ft 443 kts 337°
2026-05-07 20:58 55.92492 13.66536 34136 ft 444 kts 337°
2026-05-07 20:59 55.98059 13.61854 34136 ft 443 kts 337°
2026-05-07 20:59 56.03637 13.57146 34133 ft 443 kts 337°
2026-05-07 21:00 56.09297 13.52362 34133 ft 453 kts 337°
2026-05-07 21:00 56.15018 13.47506 34133 ft 453 kts 336°
2026-05-07 21:01 56.20692 13.42676 34133 ft 453 kts 336°
2026-05-07 21:01 56.26378 13.37819 34132 ft 453 kts 336°
2026-05-07 21:02 56.32086 13.32919 34132 ft 453 kts 335°
2026-05-07 21:02 56.37773 13.28027 34134 ft 452 kts 335°
2026-05-07 21:03 56.43425 13.23152 34137 ft 452 kts 335°
2026-05-07 21:03 56.49073 13.18262 34141 ft 451 kts 335°
2026-05-07 21:04 56.54741 13.13336 34144 ft 451 kts 335°
2026-05-07 21:04 56.60389 13.08413 34142 ft 450 kts 335°
2026-05-07 21:05 56.66009 13.03497 34143 ft 450 kts 335°
2026-05-07 21:05 56.71631 12.98562 34142 ft 450 kts 335°
2026-05-07 21:06 56.77276 12.93592 34145 ft 450 kts 335°
2026-05-07 21:06 56.82834 12.88682 34146 ft 445 kts 335°
2026-05-07 21:07 56.88392 12.83756 34140 ft 445 kts 334°
2026-05-07 21:07 56.93941 12.78819 34139 ft 446 kts 335°
2026-05-07 21:08 56.99501 12.73858 34138 ft 446 kts 335°
2026-05-07 21:08 57.05064 12.68876 34137 ft 445 kts 335°
2026-05-07 21:09 57.10620 12.63886 34137 ft 444 kts 335°
2026-05-07 21:09 57.16139 12.58913 34135 ft 444 kts 334°
2026-05-07 21:10 57.21651 12.53929 34132 ft 444 kts 334°
2026-05-07 21:10 57.27193 12.48900 34132 ft 443 kts 334°
2026-05-07 21:11 57.32704 12.43882 34133 ft 443 kts 334°
2026-05-07 21:11 57.40960 12.36336 34137 ft 441 kts 334°
2026-05-07 21:12 57.46450 12.31294 34139 ft 441 kts 333°
2026-05-07 21:12 57.51936 12.26240 34143 ft 441 kts 333°
2026-05-07 21:13 57.57429 12.21163 34143 ft 442 kts 333°
2026-05-07 21:13 57.62898 12.16092 34143 ft 441 kts 333°
2026-05-07 21:14 57.68391 12.10981 34144 ft 441 kts 333°
2026-05-07 21:14 57.73859 12.05874 34144 ft 442 kts 332°
2026-05-07 21:15 57.79358 12.00720 34144 ft 441 kts 332°
2026-05-07 21:15 57.84822 11.95579 34144 ft 441 kts 332°
2026-05-07 21:16 57.90278 11.90428 34143 ft 441 kts 332°
2026-05-07 21:16 57.95749 11.85249 34142 ft 441 kts 332°
2026-05-07 21:17 58.01215 11.80053 34141 ft 442 kts 332°
2026-05-07 21:17 58.06700 11.74817 34142 ft 441 kts 332°
2026-05-07 21:18 58.12175 11.69705 34144 ft 441 kts 334°
2026-05-07 21:18 58.17902 11.65488 34143 ft 442 kts 340°
2026-05-07 21:19 58.23831 11.62445 34144 ft 443 kts 346°
2026-05-07 21:19 58.29878 11.60370 34143 ft 443 kts 348°
2026-05-07 21:20 58.35988 11.58445 34141 ft 443 kts 348°
2026-05-07 21:20 58.42027 11.56533 34139 ft 443 kts 348°
2026-05-07 21:21 58.48116 11.54587 34136 ft 443 kts 348°
2026-05-07 21:21 58.54244 11.52617 34136 ft 443 kts 347°
2026-05-07 21:22 58.60297 11.50663 33973 ft 440 kts 347°
2026-05-07 21:22 58.63320 11.49685 33707 ft 435 kts 347°
2026-05-07 21:22 58.66272 11.48727 33445 ft 432 kts 347°
2026-05-07 21:23 58.69243 11.47762 33067 ft 429 kts 347°
2026-05-07 21:23 58.72182 11.46805 32544 ft 428 kts 347°
2026-05-07 21:23 58.75095 11.45853 31910 ft 428 kts 347°
2026-05-07 21:23 58.78042 11.44891 31229 ft 428 kts 347°
2026-05-07 21:24 58.80942 11.43944 30773 ft 422 kts 347°
2026-05-07 21:24 58.83800 11.43009 30308 ft 418 kts 347°
2026-05-07 21:24 58.86642 11.42075 29840 ft 413 kts 347°
2026-05-07 21:24 58.89463 11.41148 29367 ft 409 kts 346°
2026-05-07 21:25 58.92218 11.40241 28904 ft 405 kts 346°
2026-05-07 21:25 58.94969 11.39330 28434 ft 401 kts 346°
2026-05-07 21:25 58.97726 11.38415 27964 ft 398 kts 346°
2026-05-07 21:25 59.00412 11.37523 27507 ft 394 kts 346°
2026-05-07 21:26 59.03112 11.36626 27044 ft 391 kts 347°
2026-05-07 21:26 59.05770 11.35741 26587 ft 388 kts 346°
2026-05-07 21:26 59.08442 11.34850 26122 ft 385 kts 346°
2026-05-07 21:26 59.11020 11.33991 25895 ft 374 kts 346°
2026-05-07 21:27 59.13537 11.33156 25768 ft 361 kts 346°
2026-05-07 21:27 59.16005 11.32371 25617 ft 350 kts 348°
2026-05-07 21:27 59.18392 11.32278 25460 ft 345 kts 359°
2026-05-07 21:27 59.20779 11.33063 25060 ft 349 kts
2026-05-07 21:28 59.23085 11.34425 24655 ft 348 kts 12°
2026-05-07 21:28 59.25397 11.35901 24257 ft 346 kts 12°
2026-05-07 21:28 59.27677 11.37366 23870 ft 344 kts 12°
2026-05-07 21:28 59.29929 11.38807 23488 ft 341 kts 12°
2026-05-07 21:29 59.32170 11.40230 23095 ft 339 kts 12°
2026-05-07 21:29 59.34389 11.41634 22710 ft 337 kts 12°
2026-05-07 21:29 59.36620 11.43046 22316 ft 335 kts 12°
2026-05-07 21:29 59.38833 11.44447 21927 ft 334 kts 12°
2026-05-07 21:30 59.41024 11.45835 21536 ft 332 kts 12°
2026-05-07 21:30 59.43216 11.47223 21145 ft 330 kts 12°
2026-05-07 21:30 59.45386 11.48593 20764 ft 328 kts 12°
2026-05-07 21:30 59.47543 11.49956 20377 ft 327 kts 13°
2026-05-07 21:31 59.49716 11.51329 19987 ft 326 kts 12°
2026-05-07 21:31 59.51850 11.52678 19599 ft 324 kts 13°
2026-05-07 21:31 59.53989 11.54032 19214 ft 322 kts 13°
2026-05-07 21:31 59.56098 11.55369 18837 ft 321 kts 13°
2026-05-07 21:32 59.58234 11.56725 18451 ft 320 kts 13°
2026-05-07 21:32 59.60331 11.58060 18076 ft 318 kts 13°
2026-05-07 21:32 59.62433 11.59397 17703 ft 317 kts 13°
2026-05-07 21:32 59.64525 11.60730 17330 ft 315 kts 13°
2026-05-07 21:33 59.66592 11.62049 16950 ft 314 kts 13°
2026-05-07 21:33 59.68669 11.63376 16570 ft 313 kts 13°
2026-05-07 21:33 59.70724 11.64691 16198 ft 311 kts 13°
2026-05-07 21:33 59.72774 11.66004 15826 ft 310 kts 14°
2026-05-07 21:34 59.74815 11.67312 15463 ft 308 kts 14°
2026-05-07 21:34 59.76849 11.68618 15092 ft 306 kts 15°
2026-05-07 21:34 59.78869 11.69917 14726 ft 305 kts 15°
2026-05-07 21:34 59.80874 11.71209 14357 ft 303 kts 15°
2026-05-07 21:35 59.82869 11.72496 14002 ft 301 kts 15°
2026-05-07 21:35 59.84828 11.73762 13643 ft 300 kts 15°
2026-05-07 21:35 59.86806 11.75040 13280 ft 298 kts 15°
2026-05-07 21:35 59.88765 11.76309 12916 ft 297 kts 15°
2026-05-07 21:36 59.90722 11.77579 12559 ft 295 kts 16°
2026-05-07 21:36 59.92657 11.78835 12204 ft 293 kts 16°
2026-05-07 21:36 59.94616 11.80109 12026 ft 293 kts 16°
2026-05-07 21:36 59.96572 11.81387 11800 ft 295 kts 16°
2026-05-07 21:37 59.98515 11.82655 11420 ft 294 kts 16°
2026-05-07 21:37 60.00447 11.83918 11053 ft 292 kts 17°
2026-05-07 21:37 60.02378 11.85182 10704 ft 290 kts 17°
2026-05-07 21:37 60.04271 11.86423 10358 ft 288 kts 17°
2026-05-07 21:38 60.06158 11.87662 10013 ft 286 kts 17°
2026-05-07 21:38 60.08057 11.88911 9662 ft 284 kts 17°
2026-05-07 21:38 60.09935 11.90132 9312 ft 282 kts 15°
2026-05-07 21:38 60.11806 11.91083 9130 ft 273 kts 11°
2026-05-07 21:39 60.13660 11.91722 9126 ft 268 kts
2026-05-07 21:39 60.15493 11.92273 9129 ft 265 kts
2026-05-07 21:39 60.17317 11.92810 9126 ft 263 kts
2026-05-07 21:39 60.19120 11.93343 9139 ft 263 kts
2026-05-07 21:40 60.21513 11.94060 9134 ft 262 kts
2026-05-07 21:40 60.22736 11.94428 9131 ft 261 kts
2026-05-07 21:40 60.24505 11.94964 9129 ft 252 kts
2026-05-07 21:40 60.26222 11.95629 9130 ft 250 kts 14°
2026-05-07 21:41 60.27876 11.96699 9135 ft 250 kts 19°
2026-05-07 21:41 60.29501 11.97935 9144 ft 250 kts 20°
2026-05-07 21:41 60.31112 11.99190 9141 ft 250 kts 20°
2026-05-07 21:41 60.32733 12.00451 9134 ft 250 kts 20°
2026-05-07 21:42 60.34359 12.01711 9132 ft 251 kts 20°
2026-05-07 21:42 60.35994 12.02898 9122 ft 251 kts 13°
2026-05-07 21:42 60.37720 12.03453 9127 ft 250 kts
2026-05-07 21:42 60.39458 12.03524 9137 ft 249 kts 359°
2026-05-07 21:43 60.41174 12.03513 9140 ft 249 kts 358°
2026-05-07 21:43 60.42919 12.03503 9136 ft 249 kts 359°
2026-05-07 21:43 60.44655 12.03507 9136 ft 249 kts 359°
2026-05-07 21:43 60.46370 12.03513 9131 ft 249 kts 356°
2026-05-07 21:44 60.48093 12.03047 9133 ft 248 kts 343°
2026-05-07 21:44 60.49741 12.01975 9148 ft 248 kts 339°
2026-05-07 21:44 60.51356 12.00766 9150 ft 247 kts 338°
2026-05-07 21:44 60.52977 11.99546 9139 ft 247 kts 338°
2026-05-07 21:45 60.54583 11.98348 9138 ft 246 kts 338°
2026-05-07 21:45 60.56177 11.97168 9129 ft 242 kts 338°
2026-05-07 21:45 60.57726 11.95825 9135 ft 244 kts 330°
2026-05-07 21:45 60.59167 11.93962 9128 ft 244 kts 322°
2026-05-07 21:46 60.60532 11.91898 9135 ft 245 kts 321°
2026-05-07 21:46 60.61881 11.89778 9131 ft 245 kts 316°
2026-05-07 21:46 60.62818 11.86998 9120 ft 240 kts 284°
2026-05-07 21:46 60.62854 11.83664 9131 ft 238 kts 254°
2026-05-07 21:47 60.62057 11.80741 9133 ft 238 kts 227°
2026-05-07 21:47 60.60877 11.78368 9143 ft 238 kts 225°
2026-05-07 21:47 60.59696 11.75990 9134 ft 238 kts 225°
2026-05-07 21:47 60.58521 11.73605 9131 ft 238 kts 226°
2026-05-07 21:48 60.57355 11.71227 9131 ft 238 kts 226°
2026-05-07 21:48 60.56184 11.68836 9131 ft 238 kts 226°
2026-05-07 21:48 60.55007 11.66428 8906 ft 240 kts 225°
2026-05-07 21:48 60.53834 11.64029 8593 ft 238 kts 225°
2026-05-07 21:49 60.52682 11.61674 8276 ft 237 kts 225°
2026-05-07 21:49 60.51530 11.59322 7975 ft 235 kts 225°
2026-05-07 21:49 60.50360 11.56937 7649 ft 235 kts 225°
2026-05-07 21:49 60.49212 11.54599 7341 ft 235 kts 224°
2026-05-07 21:50 60.48040 11.52216 7026 ft 236 kts 224°
2026-05-07 21:50 60.46888 11.49877 6723 ft 235 kts 224°
2026-05-07 21:50 60.45747 11.47561 6421 ft 234 kts 224°
2026-05-07 21:50 60.44601 11.45238 6119 ft 234 kts 224°
2026-05-07 21:51 60.43451 11.42908 5823 ft 232 kts 224°
2026-05-07 21:51 60.42382 11.40437 5511 ft 234 kts 239°
2026-05-07 21:51 60.41857 11.37347 5220 ft 235 kts 259°
2026-05-07 21:51 60.41620 11.34112 4974 ft 232 kts 260°
2026-05-07 21:52 60.41403 11.30882 4737 ft 228 kts 260°
2026-05-07 21:52 60.41183 11.27725 4467 ft 222 kts 260°
2026-05-07 21:52 60.40966 11.24727 4944 ft 205 kts 259°
2026-05-07 21:52 60.40724 11.21943 5028 ft 207 kts 249°
2026-05-07 21:53 60.39908 11.19661 4730 ft 201 kts 207°
2026-05-07 21:53 60.38547 11.18775 4345 ft 206 kts 189°
2026-05-07 21:53 60.37167 11.18120 4053 ft 205 kts 192°
2026-05-07 21:53 60.35782 11.17343 3722 ft 206 kts 193°
2026-05-07 21:54 60.34417 11.16548 3408 ft 204 kts 194°
2026-05-07 21:54 60.33062 11.15760 3070 ft 200 kts 194°
2026-05-07 21:54 60.31743 11.14997 2750 ft 195 kts 194°
2026-05-07 21:54 60.30481 11.14270 2492 ft 179 kts 194°
2026-05-07 21:55 60.29351 11.13621 2301 ft 162 kts 194°
2026-05-07 21:55 60.28290 11.13011 2072 ft 149 kts 194°
2026-05-07 21:55 60.27318 11.12454 1877 ft 145 kts 194°
2026-05-07 21:55 60.26354 11.11905 1695 ft 144 kts 194°
2026-05-07 21:56 60.25385 11.11350 1504 ft 144 kts 195°
2026-05-07 21:56 60.24435 11.10791 1303 ft 143 kts 195°
2026-05-07 21:56 60.23476 11.10238 1095 ft 143 kts 195°
2026-05-07 21:56 60.22520 11.09691 905 ft 142 kts 195°
2026-05-07 21:57 60.21566 11.09139 722 ft 142 kts 195°
2026-05-07 21:57 60.20703 11.08647 685 ft 107 kts 196°
2026-05-07 21:57 60.20158 11.08332 688 ft 51 kts 195°
2026-05-07 21:57 60.19921 11.08349 686 ft 22 kts 137°
2026-05-07 21:58 60.19904 11.08397 686 ft 0 kts 115°
2026-05-07 21:58 60.19900 11.08413 686 ft 3 kts 115°
2026-05-07 21:58 60.19885 11.08485 685 ft 7 kts 107°
2026-05-07 21:58 60.19871 11.08599 687 ft 8 kts 105°
2026-05-07 21:59 60.19852 11.08733 688 ft 11 kts 106°
2026-05-07 21:59 60.19826 11.08915 686 ft 15 kts 106°
2026-05-07 21:59 60.19792 11.09154 684 ft 18 kts 105°
2026-05-07 21:59 60.19775 11.09268 684 ft 2 kts 109°
2026-05-07 22:00 60.19753 11.09318 684 ft 11 kts 153°
2026-05-07 22:00 60.19685 11.09395 684 ft 12 kts 111°
2026-05-07 22:00 60.19662 11.09473 684 ft 5 kts 176°
2026-05-07 22:00 60.19624 11.09460 684 ft 6 kts 195°
2026-05-07 22:01 60.19582 11.09437 684 ft 5 kts 195°
2026-05-07 22:01 60.19567 11.09428 684 ft 0 kts 196°
2026-05-07 22:01 60.19566 11.09427 684 ft 0 kts 196°